Regional Weather Roundup
Issued by NWS Charleston, WV

Home | Current Version | Previous Version | Graphics & Text | Print | Product List | Glossary On
Versions: 1 2 3 4 5 6 7 8 9 10 11 12 13 14 15 16 17 18 19 20 21 22 23 24 25 26 27 28 29 30 31 32 33 34 35 36 37 38 39 40 41 42 43 44 45 46 47 48 49 50
000
ASUS41 KRLX 282010
RWRRLX
West Virginia Regional Weather Roundup
National Weather Service Charleston WV
300 PM EST SAT FEB 28 2015

Note: "fair" indicates few or no clouds below 12,000 feet with no
significant weather and/or obstructions to visibility.

WVZ003-282100-
Northern Panhandle of West Virginia

CITY           SKY/WX    TMP DP  RH WIND       PRES   REMARKS
WHEELING       MOSUNNY   25   0  33 VRB3      30.63F
$$

WVZ009-282100-
Northwest West Virginia

CITY           SKY/WX    TMP DP  RH WIND       PRES   REMARKS
PARKERSBURG      N/A     31   2  29 E6        30.65F
$$

WVZ006-282100-
Western West Virginia

CITY           SKY/WX    TMP DP  RH WIND       PRES   REMARKS
HUNTINGTON     SUNNY     34  10  37 VRB6      30.59F
$$

WVZ015-282100-
West Central West Virginia

CITY           SKY/WX    TMP DP  RH WIND       PRES   REMARKS
CHARLESTON     MOSUNNY   37  13  37 VRB5      30.58F
$$

WVZ022-031-282100-
North Central West Virginia

CITY           SKY/WX    TMP DP  RH WIND       PRES   REMARKS
CLARKSBURG     CLOUDY    29   0  28 CALM      30.61F
MORGANTOWN     CLOUDY    31   1  28 NW6       30.61F
$$

WVZ025-035-042-045-282100-
Southern West Virginia

CITY           SKY/WX    TMP DP  RH WIND       PRES   REMARKS
BECKLEY        SUNNY     34  14  43 VRB7      30.51F
LOGAN            N/A     39  18  41 CALM      30.50F
BLUEFIELD      MOSUNNY   39  15  37 VRB5      30.50F
LEWISBURG      SUNNY     34  12  40 W3        30.55F
$$

WVZ047-282100-
Northern Mountains of West Virginia

CITY           SKY/WX    TMP DP  RH WIND       PRES   REMARKS
ELKINS           N/A     35   4  27 NW6       30.54F
$$

WVZ052-282100-
Eastern Panhandle of West Virginia

CITY           SKY/WX    TMP DP  RH WIND       PRES   REMARKS
MARTINSBURG    SUNNY     30   2  30 VRB5      30.72F
PETERSBURG     SUNNY     32   2  28 CALM      30.65F
$$



USA.gov is the U.S. government's official web portal to all federal, state and local government web resources and services.